Home > Weather > Bari > Past weeks

Flag for Italy Weather for the Past 2 Weeks in Bari, Italy

Now
41 °F

Clear.


Feels Like: 37 °F
Forecast: 52 / 62 °F
Wind: 6 mph from Southwest

Location: Bari / Palese Macchie

Current Time: Feb 12, 2016 at 5:00:24 AM

Latest Report: Feb 12, 2016 at 4:20 AM


Visibility: 10 mi

Pressure: 29.86 "Hg

Humidity: 87%

Dew point: 37 °F

Location of BariLocation

Historic Weather in Bari — Graph

°F

Bari Temperature Yesterday

Maximum temperature yesterday: 54 °F (at 1:20 PM)
Minimum temperature yesterday: 39 °F (at 11:50 PM)
Average temperature yesterday: 48 °F

High & Low Weather Summary for the Past Weeks

 TemperatureHumidityPressure
High66 °F (Feb 3, 11:20 AM)100% (Jan 30, 8:20 PM)30.51 "Hg (Jan 30, 8:20 PM)
Low36 °F (Feb 6, 10:50 PM)38% (Feb 5, 5:50 PM)29.50 "Hg (Feb 10, 1:50 PM)
Average52 °F74%30.15 "Hg
* Reported Jan 28 3:20 AM — Feb 12 3:20 AM, Bari, Weather by CustomWeather, © 2016

Note: Actual official high and low records may vary slightly from our data, if they occured in-between our weather recording intervals... More about our weather records

Advertising

Bari Weather History for the Previous 24 Hours

 ConditionsComfort  
Time TempWeatherWind HumidityBarometerVisibility
3:20 AM
Fri, Feb 12
37 °FClear.8 mph93%29.89 "Hg10 mi
2:50 AM37 °FClear.8 mph93%29.89 "Hg10 mi
1:50 AM37 °FClear.7 mph93%29.89 "Hg10 mi
1:20 AM37 °FClear.7 mph93%29.89 "Hg10 mi
12:50 AM39 °FClear.7 mph87%29.89 "Hg10 mi
12:20 AM39 °FClear.7 mph93%29.89 "Hg10 mi
11:50 PM
Thu, Feb 11
39 °FClear.7 mph93%29.89 "Hg10 mi
10:20 PM41 °FClear.7 mph93%29.86 "Hg10 mi
9:50 PM41 °FClear.7 mph93%29.86 "Hg10 mi
9:20 PM43 °FClear.7 mph87%29.86 "Hg10 mi
8:50 PM43 °FClear.5 mph93%29.86 "Hg10 mi
8:20 PM45 °FClear.3 mph93%29.86 "Hg10 mi
7:50 PM45 °FClear.3 mph93%29.86 "Hg10 mi
7:20 PM45 °FClear.5 mph93%29.83 "Hg10 mi
6:50 PM46 °FPassing clouds.7 mph93%29.83 "HgN/A
6:20 PM46 °FPassing clouds.6 mph93%29.83 "HgN/A
5:50 PM48 °FPassing clouds.7 mph87%29.80 "HgN/A
5:20 PM48 °FScattered clouds.8 mph94%29.80 "HgN/A
4:50 PM50 °FBroken clouds.9 mph94%29.77 "HgN/A
4:20 PM50 °FBroken clouds.10 mph94%29.77 "Hg4 mi
3:50 PM50 °FPartly sunny.12 mph94%29.77 "HgN/A
3:20 PM52 °FLight rain. Partly sunny.13 mph88%29.77 "HgN/A
2:50 PM52 °FPartly sunny.10 mph94%29.77 "HgN/A
2:20 PM52 °FPartly sunny.9 mph94%29.74 "Hg5 mi
1:50 PM52 °FPartly sunny.10 mph94%29.74 "Hg5 mi
1:20 PM54 °FBroken clouds.5 mph94%29.74 "Hg5 mi
12:50 PM52 °FBroken clouds.5 mph94%29.74 "Hg5 mi
12:20 PM52 °FBroken clouds.6 mph88%29.74 "Hg5 mi
11:50 AM50 °FBroken clouds.9 mph94%29.71 "Hg5 mi
11:20 AM50 °FPartly sunny.8 mph94%29.74 "Hg5 mi
10:50 AM52 °FLight rain. Partly sunny.9 mph88%29.74 "Hg5 mi
10:20 AM50 °FLight rain. Broken clouds.7 mph94%29.74 "Hg4 mi
9:50 AM48 °FRain. Broken clouds.5 mph94%29.77 "Hg3 mi
9:20 AM48 °FRain. Broken clouds.5 mph94%29.77 "Hg3 mi
8:50 AM48 °FLight rain. Broken clouds.5 mph94%29.77 "Hg4 mi
8:20 AM48 °FLight rain. Broken clouds.5 mph94%29.77 "Hg4 mi
7:50 AM48 °FRain. Partly sunny.3 mph87%29.77 "Hg3 mi
7:20 AM48 °FRain. Partly sunny.3 mph87%29.80 "Hg3 mi
6:50 AM48 °FRain. Passing clouds.2 mph87%29.77 "Hg5 mi
6:20 AM50 °FLight rain. Passing clouds.5 mph67%29.77 "Hg5 mi
5:50 AM50 °FPassing clouds.6 mph67%29.77 "HgN/A
5:20 AM50 °FClear.6 mph58%29.77 "Hg10 mi
Weather by CustomWeather, © 2016

See weather overviewHow to use our weather pages